| time (UTC) | temp C | wind direction | speed KPH | gust KPH | rain 1hr cm | rain 24hr cm | rain mn cm | humidity % | barometer mb |
| 20260503180040 | 17 | 296 | 11.3 | 17.7 | 0.00 | 0.00 | 0.00 | 22 | 1020.5 |
| 20260503174538 | 17 | 290 | 8.0 | 20.9 | 0.00 | 0.00 | 0.00 | 24 | 1020.7 |
| 20260503173037 | 17 | 229 | 6.4 | 22.5 | 0.00 | 0.00 | 0.00 | 25 | 1020.9 |
| 20260503171534 | 16 | 229 | 12.9 | 22.5 | 0.00 | 0.00 | 0.00 | 26 | 1021.2 |
| 20260503081531 | 7 | 13 | 0.0 | 4.8 | 0.00 | 0.00 | 0.00 | 55 | 1019.3 |
| 20260503071519 | 7 | 13 | 0.0 | 0.0 | 0.00 | 0.00 | 0.00 | 55 | 1018.6 |
| 20260503054512 | 9 | 13 | 0.0 | 0.0 | 0.00 | 0.00 | 0.00 | 46 | 1018.2 |
| 20260503053004 | 9 | 13 | 1.6 | 4.8 | 0.00 | 0.00 | 0.00 | 45 | 1018.2 |
| 20260503051559 | 10 | 13 | 0.0 | 3.2 | 0.00 | 0.00 | 0.00 | 42 | 1018.1 |
| 20260503050058 | 10 | 13 | 0.0 | 1.6 | 0.00 | 0.00 | 0.00 | 40 | 1017.9 |
| 20260503044605 | 10 | 13 | 1.6 | 3.2 | 0.00 | 0.00 | 0.00 | 39 | 1017.7 |
| 20260503043059 | 11 | 13 | 0.0 | 3.2 | 0.00 | 0.00 | 0.00 | 38 | 1017.7 |
| 20260503041553 | 11 | 13 | 0.0 | 3.2 | 0.00 | 0.00 | 0.00 | 37 | 1017.6 |
| 20260503040050 | 11 | 14 | 0.0 | 1.6 | 0.00 | 0.00 | 0.00 | 38 | 1017.4 |
| 20260503034550 | 11 | 14 | 1.6 | 4.8 | 0.00 | 0.00 | 0.00 | 36 | 1017.2 |
| 20260503033100 | 11 | 14 | 1.6 | 6.4 | 0.00 | 0.00 | 0.00 | 36 | 1017.3 |
| 20260503031554 | 12 | 12 | 0.0 | 3.2 | 0.00 | 0.00 | 0.00 | 34 | 1017.2 |
| 20260503030049 | 12 | 9 | 1.6 | 4.8 | 0.00 | 0.00 | 0.00 | 33 | 1017.1 |
| 20260503024607 | 13 | 9 | 3.2 | 12.9 | 0.00 | 0.00 | 0.00 | 31 | 1017.0 |
| 20260503023046 | 13 | 15 | 3.2 | 9.7 | 0.00 | 0.00 | 0.00 | 30 | 1016.9 |
| 20260503021545 | 13 | 44 | 3.2 | 9.7 | 0.00 | 0.00 | 0.00 | 30 | 1016.7 |
| 20260503020046 | 14 | 11 | 4.8 | 9.7 | 0.00 | 0.00 | 0.00 | 30 | 1016.4 |
| 20260503014542 | 14 | 355 | 3.2 | 8.0 | 0.00 | 0.00 | 0.00 | 29 | 1016.1 |
| 20260503013038 | 15 | 360 | 3.2 | 9.7 | 0.00 | 0.00 | 0.00 | 29 | 1015.9 |
| 20260503011541 | 15 | 36 | 4.8 | 14.5 | 0.00 | 0.00 | 0.00 | 29 | 1015.6 |
| 20260503010036 | 15 | 349 | 6.4 | 12.9 | 0.00 | 0.00 | 0.00 | 32 | 1015.3 |
| 20260503004536 | 15 | 73 | 0.0 | 6.4 | 0.00 | 0.00 | 0.00 | 40 | 1014.9 |
| 20260503003035 | 15 | 92 | 0.0 | 8.0 | 0.00 | 0.00 | 0.00 | 39 | 1014.7 |
| 20260503001538 | 15 | 108 | 3.2 | 9.7 | 0.00 | 0.00 | 0.00 | 39 | 1014.5 |
| 20260503000034 | 15 | 25 | 1.6 | 8.0 | 0.00 | 0.00 | 0.00 | 41 | 1014.2 |
| 20260502234534 | 15 | 145 | 1.6 | 6.4 | 0.00 | 0.00 | 0.00 | 39 | 1013.6 |
| 20260502233042 | 16 | 116 | 0.0 | 3.2 | 0.00 | 0.00 | 0.00 | 38 | 1013.4 |
| 20260502231552 | 16 | 115 | 4.8 | 6.4 | 0.00 | 0.00 | 0.00 | 37 | 1013.3 |
| 20260502230031 | 16 | 113 | 3.2 | 6.4 | 0.00 | 0.00 | 0.00 | 36 | 1013.3 |
| 20260502224532 | 16 | 111 | 3.2 | 9.7 | 0.00 | 0.00 | 0.00 | 36 | 1013.2 |
| 20260502223031 | 17 | 113 | 3.2 | 9.7 | 0.00 | 0.00 | 0.00 | 34 | 1013.1 |
| 20260502221530 | 17 | 144 | 0.0 | 11.3 | 0.00 | 0.00 | 0.00 | 33 | 1012.9 |
| 20260502220036 | 17 | 240 | 1.6 | 11.3 | 0.00 | 0.00 | 0.00 | 33 | 1012.8 |
| 20260502214526 | 17 | 103 | 6.4 | 16.1 | 0.00 | 0.00 | 0.00 | 34 | 1012.6 |
| 20260502213025 | 17 | 114 | 1.6 | 14.5 | 0.00 | 0.00 | 0.00 | 35 | 1012.6 |
| 20260502211534 | 16 | 112 | 3.2 | 12.9 | 0.00 | 0.00 | 0.00 | 35 | 1012.9 |
| 20260502210023 | 16 | 108 | 1.6 | 16.1 | 0.00 | 0.00 | 0.00 | 35 | 1012.8 |
| 20260502204522 | 17 | 265 | 0.0 | 6.4 | 0.00 | 0.00 | 0.00 | 33 | 1012.7 |
| 20260502203020 | 17 | 40 | 1.6 | 11.3 | 0.00 | 0.00 | 0.00 | 33 | 1012.8 |
| 20260502201517 | 16 | 100 | 3.2 | 14.5 | 0.00 | 0.00 | 0.00 | 34 | 1012.7 |
| 20260502200017 | 16 | 167 | 3.2 | 12.9 | 0.00 | 0.00 | 0.00 | 35 | 1012.9 |
| 20260502194516 | 16 | 126 | 4.8 | 11.3 | 0.00 | 0.00 | 0.00 | 35 | 1013.2 |
| 20260502193015 | 16 | 46 | 0.0 | 9.7 | 0.00 | 0.00 | 0.00 | 35 | 1013.5 |
| 20260502191518 | 15 | 91 | 1.6 | 14.5 | 0.00 | 0.00 | 0.00 | 37 | 1013.7 |
| 20260502190012 | 15 | 119 | 3.2 | 9.7 | 0.00 | 0.00 | 0.00 | 37 | 1013.8 |
| 20260502184513 | 15 | 5 | 6.4 | 12.9 | 0.00 | 0.00 | 0.00 | 37 | 1013.9 |
| 20260502183008 | 15 | 99 | 0.0 | 6.4 | 0.00 | 0.00 | 0.00 | 39 | 1014.1 |
| 20260502181505 | 14 | 53 | 9.7 | 14.5 | 0.00 | 0.00 | 0.00 | 40 | 1014.3 |